Miscellaneous Local Product
Issued by NWS Hastings, NE

Home | Current Version | Previous Version | Graphics & Text | Print | Product List | Glossary On
Versions: 1 2 3 4 5 6 7 8 9 10 11 12 13 14 15 16 17 18 19 20 21 22 23 24 25 26 27 28 29 30 31 32 33 34 35 36 37 38 39 40 41 42 43 44 45 46 47 48 49 50
000
AXUS43 KGID 180402
MISGRI

GID CWA HOURLY WEATHER ROUNDUP
NATIONAL WEATHER SERVICE HASTINGS NE
1000 PM CST WED DEC 17 2014

NOTE: "FAIR" INDICATES FEW OR NO CLOUDS BELOW 12,000 FEET WITH NO
SIGNIFICANT WEATHER AND/OR OBSTRUCTIONS TO VISIBILITY.

...SOUTH CENTRAL NEBRASKA...

CITY           SKY/WX    TMP DP  RH WIND       PRES   REMARKS
GRAND ISLAND   CLOUDY    24  18  77 SE7       30.20S WCI  16
HASTINGS       CLOUDY    25  18  74 SE8       30.17S WCI  16
KEARNEY        CLOUDY    25  19  80 E7        30.17R WCI  17
ORD            CLOUDY    23  20  88 SE7       30.16F WCI  15
YORK           CLOUDY    25 N/A N/A SE6       30.21F WCI  18
AURORA         CLOUDY    25  19  79 SE8       30.19F WCI  16
LEXINGTON      CLOUDY    26  23  90 SE6       30.14R WCI  19
HOLDREGE       CLOUDY    24  21  88 SE9       30.14S WCI  15
HEBRON         CLOUDY    28  19  70 E5        30.21F WCI  23

...NEBRASKA PANHANDLE...

CITY           SKY/WX    TMP DP  RH WIND       PRES   REMARKS
CHADRON        FOG       19  17  92 SW7       30.02S VSB 1/2 WCI  10
ALLIANCE       FOG       21  19  92 S6        30.00R VSB 1/2 WCI  13
SCOTTSBLUFF    FOG       19  18  95 CALM      30.01R VSB 1/4
SIDNEY         CLOUDY    22  20  92 SW10      30.00R FOG     WCI  11

...WESTERN AND NORTH CENTRAL NEBRASKA...

CITY           SKY/WX    TMP DP  RH WIND       PRES   REMARKS
VALENTINE      CLOUDY    22  20  92 S10       30.10S WCI  11
AINSWORTH      CLOUDY    20  19  96 S5        30.12S FOG     WCI  14
ONEILL         CLOUDY    22  21  94 CALM      30.19S
BROKEN BOW     CLOUDY    24  22  91 SE6       30.13S FOG     WCI  17
IMPERIAL       CLOUDY    24  21  88 S8        30.08R FOG     WCI  15
NORTH PLATTE   CLOUDY    22  20  92 SE6       30.11S WCI  14
MCCOOK         CLOUDY    25  23  92 E5        30.12S FOG     WCI  19

...EASTERN NEBRASKA...

CITY           SKY/WX    TMP DP  RH WIND       PRES   REMARKS
NORFOLK        CLOUDY    25  17  72 SE7       30.22S WCI  17
SO SIOUX CITY  CLOUDY    25  18  74 E5        30.27S WCI  19
TEKAMAH        CLOUDY    27  19  72 E7        30.27S WCI  19
COLUMBUS       CLOUDY    25  16  68 SE6       30.24F WCI  18
ALBION         CLOUDY    24  18  77 SE7       30.20S WCI  16
OMAHA EPPLEY   CLOUDY    28  19  69 E5        30.28S WCI  23
OFFUTT AFB     CLOUDY    28  20  71 E3        30.26S
MILLARD        CLOUDY    28  19  66 E3        30.26S
LINCOLN        CLOUDY    27  18  69 E5        30.26F WCI  22
NEBRASKA CITY  CLOUDY    27  19  71 NE3       30.25F
BEATRICE       CLOUDY    27  21  79 E5        30.24S WCI  21
FALLS CITY     CLOUDY    29  22  75 SE5       30.26S WCI  24

...NORTHERN KANSAS...

CITY           SKY/WX    TMP DP  RH WIND       PRES   REMARKS
GOODLAND       FOG       24  23  96 E5        30.05S VSB 1   WCI  18
HILL CITY      CLOUDY    26  22  84 E12       30.14S WCI  16
NORTON         CLOUDY    25  19  80 E6        30.12F WCI  18
PHILLIPSBURG   CLOUDY    28  25  86 E9        30.17S WCI  20
SMITH CENTER   MIX PCPN  25  23  93 E13       30.18F WCI  13
BELOIT         CLOUDY    27  25  93 NE3       30.20S
HAYS           CLOUDY    27  19  74 NE9       30.15R WCI  17
RUSSELL        LGT SNOW  27  26  96 NE5       30.15R VSB 1   WCI  22
CONCORDIA      FLURRIES  27  20  75 E7        30.20S WCI  19
SALINA         LGT SNOW  29  26  89 E7        30.20R FOG     WCI  22
TOPEKA         CLOUDY    31  22  69 NE3       30.25F



USA.gov is the U.S. government's official web portal to all federal, state and local government web resources and services.